Starlink 30523

operational
NORAD ID: 57997 Int'l Des: 2023-153 Owner: SPXS Country: US Constellation: starlink
LEOCIRCULAR

关于 Starlink 30523

正在加载描述...

实时位置

正在加载3D地球...

即将过境

高度历史

Altitude vs Time

uPlot chart will show altitude changes over time

两行轨道根数

1 57997U 23153G 25350.79200115 .00000645 00000-0 62824-4 0 9992
2 57997 43.0027 159.4309 0001260 265.0838 94.9860 15.02534996122406
Epoch: Dec 16, 2025 • Age: 13 hours

当前状态

高度 560.5 km
速度 7.58 km/s
星下点 -10.00°S, 56.07°W
发射日期 Oct 5, 2023
运行时间 2.2 years
类型 internet

技术详情

分类 Payload
质量 730.00 kg
干质量 700.00 kg
总质量 730.00 kg
长度 0.30 m
直径 4.10 m
跨度 29.00 m
形状 Box + pan
制造商 SPXS
平台类型 Starlink V2M
阶段状态 In Orbit
所有者/国家 SPXS/US

大型星座

Loading constellations...